Location: Bridgewater
(44.3670°N, 64.5170°W)
Time: 16:14:37
(UTC-03:00)

Amateur Radio Satellites - All Passes

Search period start: 26 July 2014 15:44
Search period end: 27 July 2014 15:44
Location: Bridgewater, 44.3670°N, 64.5170°W

Satellite Date Start Highest point End Downlink Frequencies (MHz)
Time Altitude Azimuth
ITAMSAT 1 26 Jul 15:46:37 15:50:41 23° 267° (W) 15:54:46 435.822 SSB
TMSAT-1 26 Jul 15:47:19 15:52:36 70° 258° (WSW) 15:57:55 436.925 FM
RS-15 26 Jul 15:49:39 16:00:40 67° 311° (NW) 16:11:35 29.354 - 29.394 USB, Beacon 29.352 USB
AO-7 26 Jul 15:57:17 16:05:20 55° 63° (ENE) 16:13:25 29.400 - 29.500 MHz
SO-50 26 Jul 15:57:24 16:00:22 17° 325° (NW) 16:03:22 436.795 FM
Uosat F 26 Jul 15:57:46 16:02:24 38° 68° (ENE) 16:07:03 435.120 FM
JAS-1B 26 Jul 16:01:47 16:10:12 50° 264° (W) 16:19:40 435.800 - 435.900 CW/SSB
AO-27 26 Jul 16:06:23 16:09:23 15° 270° (W) 16:12:24 436.795 MHz FM
Uribyol 2 26 Jul 16:08:32 16:11:12 14° 271° (W) 16:13:52 436.500 FM
Gurwin Techsat 1B 26 Jul 16:10:36 16:15:21 33° 264° (W) 16:20:08 435.225 FM
UOSAT-12 26 Jul 16:31:27 16:36:00 57° 309° (NW) 16:40:39 437.025 FM, 437.400 FM
OPAL 26 Jul 16:37:49 16:41:57 25° 96° (E) 16:46:05 ?
Saudisat 1A 26 Jul 16:56:32 17:00:45 42° 48° (NE) 17:04:55 436.775 MHz
Hamsat 26 Jul 17:02:55 17:04:06 11° 60° (ENE) 17:05:18 145.90 MHz
KITSAT 1 26 Jul 17:22:17 17:29:53 47° 248° (WSW) 17:37:27 435.175 FM
JAS-2 26 Jul 17:27:08 17:33:43 32° 62° (ENE) 17:39:58 435.800 - 435.900 CW/SSB, 435.910 FM
Uosat F 26 Jul 17:36:57 17:41:16 28° 265° (W) 17:45:35 435.120 FM
AO-7 26 Jul 17:50:48 17:58:22 37° 263° (W) 18:06:00 29.400 - 29.500 MHz
RS-15 26 Jul 18:06:21 18:15:33 29° 341° (NNW) 18:24:47 29.354 - 29.394 USB, Beacon 29.352 USB
UOSAT-12 26 Jul 18:14:53 18:17:11 13° 330° (NNW) 18:19:30 437.025 FM, 437.400 FM
OPAL 26 Jul 18:16:12 18:20:59 44° 293° (WNW) 18:25:49 ?
Hamsat 26 Jul 18:35:17 18:39:27 79° 258° (WSW) 18:43:40 145.90 MHz
Saudisat 1A 26 Jul 18:36:33 18:40:08 25° 246° (WSW) 18:43:41 436.775 MHz
STRAND 1 26 Jul 18:57:08 19:00:14 16° 90° (E) 19:03:20 ?
JAS-2 26 Jul 19:10:33 19:18:19 64° 259° (W) 19:25:41 435.800 - 435.900 CW/SSB, 435.910 FM
SO-67 26 Jul 19:19:13 19:22:33 46° 74° (ENE) 19:25:55 435.3500 MHz FM
HO-68 26 Jul 19:41:20 19:46:17 21° 53° (NE) 19:51:13 435.675 MHz FM
RS-15 26 Jul 20:23:23 20:32:29 28° 17° (NNE) 20:41:41 29.354 - 29.394 USB, Beacon 29.352 USB
STRAND 1 26 Jul 20:34:50 20:39:55 66° 288° (WNW) 20:44:57 ?
UKube-1 26 Jul 20:39:13 20:42:25 20° 64° (ENE) 20:45:36 145.840 MHz, 145.915 MHz
SO-67 26 Jul 20:54:53 20:55:54 11° 270° (W) 20:56:56 435.3500 MHz FM
JAS-2 26 Jul 21:01:54 21:04:30 12° 277° (W) 21:07:05 435.800 - 435.900 CW/SSB, 435.910 FM
SO-50 26 Jul 21:04:46 21:08:30 23° 39° (NE) 21:12:17 436.795 FM
HO-68 26 Jul 21:25:52 21:33:04 89° 72° (ENE) 21:40:17 435.675 MHz FM
Oscar 11 26 Jul 21:26:38 21:30:20 29° 68° (ENE) 21:34:03 145.825 FM, Beacon 2401.500 USB
FUNcube-1 26 Jul 21:41:59 21:44:42 17° 64° (ENE) 21:47:24 145.950 - 145.970 MHz USB
UKube-1 26 Jul 22:14:10 22:18:20 43° 261° (W) 22:22:31 145.840 MHz, 145.915 MHz
AO-40 26 Jul 22:25:38 04:00:29 33° 185° (S) 09:09:12 Beacon 2401.320
MaSat-1 26 Jul 22:33:36 22:37:37 75° 115° (ESE) 22:42:20 437.345 MHz
RS-15 26 Jul 22:36:43 22:47:37 62° 47° (NE) 22:58:51 29.354 - 29.394 USB, Beacon 29.352 USB
SO-50 26 Jul 22:44:47 22:49:29 65° 239° (WSW) 22:54:15 436.795 FM
Oscar 11 26 Jul 23:02:48 23:06:29 28° 265° (W) 23:10:13 145.825 FM, Beacon 2401.500 USB
FUNcube-1 26 Jul 23:16:30 23:20:45 51° 260° (W) 23:24:56 145.950 - 145.970 MHz USB
HO-68 26 Jul 23:17:10 23:21:40 18° 271° (W) 23:26:11 435.675 MHz FM
UOSAT-12 26 Jul 23:19:46 23:23:59 31° 43° (NE) 23:28:09 437.025 FM, 437.400 FM
Lituanica SAT-1 26 Jul 23:57:59 23:59:54 70° 148° (SSE) 00:01:51 437.275 MHz beacon
ISS 26 Jul 23:59:50 00:00:50 11° 130° (SE) 00:01:51 145.800 FM
MaSat-1 27 Jul 00:12:47 00:15:41 17° 318° (NW) 00:18:48 437.345 MHz
RS-15 27 Jul 00:49:30 00:59:37 44° 250° (WSW) 01:10:07 29.354 - 29.394 USB, Beacon 29.352 USB
UOSAT-12 27 Jul 00:59:48 01:04:16 41° 243° (WSW) 01:08:38 437.025 FM, 437.400 FM
Sapphire 27 Jul 01:05:18 01:09:35 25° 108° (ESE) 01:13:53 437.095 MHz 1200 baud AX-25 AFSK
Lituanica SAT-1 27 Jul 01:31:02 01:32:17 15° 345° (NNW) 01:33:32 437.275 MHz beacon
ISS 27 Jul 01:33:41 01:37:02 78° 147° (SSE) 01:40:24 145.800 FM
Oscar 19 27 Jul 01:35:19 01:37:32 13° 88° (E) 01:39:45 437.125 CW, 437.150 USB
PCSat 27 Jul 01:37:50 01:43:00 49° 114° (ESE) 01:48:14 145.825 MHz
JAS-1B 27 Jul 01:59:25 02:02:52 12° 77° (ENE) 02:06:09 435.800 - 435.900 CW/SSB
Oscar 16 27 Jul 02:01:45 02:05:54 24° 93° (E) 02:10:01 437.025 USB, Beacon 2401.1428
AO-Echo 27 Jul 02:10:38 02:12:51 13° 87° (E) 02:15:02 ?
ITAMSAT 1 27 Jul 02:18:37 02:21:32 15° 89° (E) 02:24:25 435.822 SSB
AO-27 27 Jul 02:36:20 02:40:22 23° 93° (E) 02:44:22 436.795 MHz FM
Uribyol 2 27 Jul 02:37:44 02:41:53 24° 94° (E) 02:46:00 436.500 FM
Gurwin Techsat 1B 27 Jul 02:47:14 02:49:00 12° 87° (E) 02:50:45 435.225 FM
Sapphire 27 Jul 02:47:22 02:52:39 53° 306° (NW) 02:57:58 437.095 MHz 1200 baud AX-25 AFSK
Lituanica SAT-1 27 Jul 03:04:27 03:05:01 11° 5° (N) 03:05:36 437.275 MHz beacon
ISS 27 Jul 03:11:02 03:14:01 29° 346° (NNW) 03:17:01 145.800 FM
Oscar 19 27 Jul 03:12:20 03:17:32 84° 285° (WNW) 03:22:42 437.125 CW, 437.150 USB
PCSat 27 Jul 03:21:55 03:26:39 30° 314° (NW) 03:31:25 145.825 MHz
Oscar 16 27 Jul 03:40:32 03:45:27 46° 291° (WNW) 03:50:21 437.025 USB, Beacon 2401.1428
JAS-1B 27 Jul 03:46:06 03:55:36 61° 99° (E) 04:03:46 435.800 - 435.900 CW/SSB
AO-Echo 27 Jul 03:47:09 03:52:18 80° 285° (WNW) 03:57:15 ?
OPAL 27 Jul 03:54:13 03:59:00 53° 68° (ENE) 04:03:50 ?
ITAMSAT 1 27 Jul 03:56:23 04:01:34 72° 287° (WNW) 04:06:42 435.822 SSB
AO-7 27 Jul 03:59:38 04:03:24 14° 86° (E) 04:07:08 29.400 - 29.500 MHz
TMSAT-1 27 Jul 04:01:39 04:06:40 41° 98° (E) 04:11:38 436.925 FM
AO-27 27 Jul 04:15:09 04:20:09 49° 290° (WNW) 04:25:06 436.795 MHz FM
Uribyol 2 27 Jul 04:16:39 04:21:34 45° 291° (WNW) 04:26:27 436.500 FM
Gurwin Techsat 1B 27 Jul 04:24:22 04:29:43 88° 104° (ESE) 04:35:02 435.225 FM
Sapphire 27 Jul 04:34:52 04:37:22 13° 329° (NNW) 04:39:53 437.095 MHz 1200 baud AX-25 AFSK
Lituanica SAT-1 27 Jul 04:35:52 04:37:37 28° 23° (NNE) 04:39:21 437.275 MHz beacon
ISS 27 Jul 04:48:38 04:51:26 24° 6° (N) 04:54:15 145.800 FM
Oscar 19 27 Jul 04:53:53 04:56:04 13° 303° (WNW) 04:58:15 437.125 CW, 437.150 USB
AO-Echo 27 Jul 05:28:19 05:30:11 12° 304° (NW) 05:32:01 ?
OPAL 27 Jul 05:34:40 05:38:12 20° 266° (W) 05:41:46 ?
JAS-1B 27 Jul 05:36:58 05:45:33 39° 301° (WNW) 05:53:14 435.800 - 435.900 CW/SSB
ITAMSAT 1 27 Jul 05:38:45 05:40:09 11° 305° (NW) 05:41:32 435.822 SSB
TMSAT-1 27 Jul 05:41:56 05:46:24 28° 296° (WNW) 05:50:51 436.925 FM
Uosat F 27 Jul 05:42:02 05:47:06 80° 104° (ESE) 05:52:06 435.120 FM
AO-7 27 Jul 05:49:19 05:57:40 70° 105° (ESE) 06:05:56 29.400 - 29.500 MHz
KITSAT 1 27 Jul 05:58:52 06:04:47 23° 103° (ESE) 06:10:42 435.175 FM
Gurwin Techsat 1B 27 Jul 06:06:08 06:08:57 15° 303° (WNW) 06:11:45 435.225 FM
Lituanica SAT-1 27 Jul 06:08:16 06:09:37 16° 221° (SW) 06:10:57 437.275 MHz beacon
STRAND 1 27 Jul 06:14:13 06:18:35 29° 65° (ENE) 06:22:58 ?
Hamsat 27 Jul 06:20:23 06:23:11 17° 91° (E) 06:26:00 145.90 MHz
JAS-2 27 Jul 06:21:19 06:24:57 16° 86° (E) 06:28:21 435.800 - 435.900 CW/SSB, 435.910 FM
ISS 27 Jul 06:25:20 06:28:39 56° 26° (NNE) 06:31:58 145.800 FM
Oscar 10/S400 27 Jul 06:29:30 07:44:31 32° 242° (WSW) 11:29:42 145.825 - 145.975 CW/USB, Beacon 145.810 USB
MaSat-1 27 Jul 06:50:18 06:55:11 35° 53° (NE) 06:59:54 437.345 MHz
Uosat F 27 Jul 07:22:27 07:25:14 15° 302° (WNW) 07:28:00 435.120 FM
JAS-1B 27 Jul 07:30:56 07:33:10 11° 325° (NW) 07:35:20 435.800 - 435.900 CW/SSB
AO-7 27 Jul 07:42:52 07:49:50 31° 306° (NW) 07:56:46 29.400 - 29.500 MHz
KITSAT 1 27 Jul 07:51:07 07:59:15 84° 303° (WNW) 08:07:24 435.175 FM
STRAND 1 27 Jul 07:52:50 07:57:37 39° 262° (W) 08:02:27 ?
Hamsat 27 Jul 07:55:17 07:59:25 47° 288° (WNW) 08:03:33 145.90 MHz
ISS 27 Jul 08:02:25 08:05:11 23° 223° (SW) 08:07:55 145.800 FM
JAS-2 27 Jul 08:04:45 08:10:55 73° 287° (WNW) 08:16:23 435.800 - 435.900 CW/SSB, 435.910 FM
SO-67 27 Jul 08:14:29 08:17:51 45° 99° (E) 08:21:11 435.3500 MHz FM
MaSat-1 27 Jul 08:27:41 08:32:36 39° 252° (WSW) 08:37:17 437.345 MHz
PCSat 27 Jul 08:41:59 08:44:43 14° 32° (NNE) 08:47:26 145.825 MHz
Saudisat 1A 27 Jul 08:43:35 08:47:55 57° 121° (ESE) 08:52:16 436.775 MHz
HO-68 27 Jul 08:54:03 08:57:47 15° 87° (E) 09:01:29 435.675 MHz FM
SO-67 27 Jul 09:49:01 09:50:32 12° 295° (WNW) 09:52:03 435.3500 MHz FM
KITSAT 1 27 Jul 09:49:13 09:55:53 27° 327° (NNW) 10:02:35 435.175 FM
Sapphire 27 Jul 09:50:34 09:55:25 32° 47° (NE) 10:00:14 437.095 MHz 1200 baud AX-25 AFSK
JAS-2 27 Jul 09:52:09 09:54:44 13° 309° (NW) 09:57:12 435.800 - 435.900 CW/SSB, 435.910 FM
UKube-1 27 Jul 10:01:02 10:04:46 27° 96° (E) 10:08:27 145.840 MHz, 145.915 MHz
PCSat 27 Jul 10:24:00 10:29:22 57° 54° (NE) 10:34:41 145.825 MHz
Saudisat 1A 27 Jul 10:24:20 10:27:50 22° 320° (NW) 10:31:20 436.775 MHz
HO-68 27 Jul 10:39:21 10:46:33 81° 106° (ESE) 10:53:41 435.675 MHz FM
Oscar 11 27 Jul 10:48:04 10:52:15 45° 99° (E) 10:56:25 145.825 FM, Beacon 2401.500 USB
FUNcube-1 27 Jul 11:04:21 11:07:49 25° 95° (E) 11:11:16 145.950 - 145.970 MHz USB
Sapphire 27 Jul 11:33:50 11:39:00 46° 246° (WSW) 11:44:08 437.095 MHz 1200 baud AX-25 AFSK
UKube-1 27 Jul 11:37:08 11:40:58 30° 293° (WNW) 11:44:45 145.840 MHz, 145.915 MHz
KITSAT 1 27 Jul 11:50:12 11:54:38 15° 357° (N) 11:59:04 435.175 FM
PCSat 27 Jul 12:08:12 12:12:22 23° 253° (WSW) 12:16:32 145.825 MHz
Oscar 11 27 Jul 12:25:05 12:28:07 19° 296° (WNW) 12:31:09 145.825 FM, Beacon 2401.500 USB
HO-68 27 Jul 12:28:11 12:33:29 23° 306° (NW) 12:38:46 435.675 MHz FM
FUNcube-1 27 Jul 12:40:36 12:44:14 30° 291° (WNW) 12:47:52 145.950 - 145.970 MHz USB
JAS-1B 27 Jul 12:44:46 12:50:22 18° 44° (NE) 12:56:09 435.800 - 435.900 CW/SSB
Oscar 19 27 Jul 12:53:09 12:57:07 23° 63° (ENE) 13:01:05 437.125 CW, 437.150 USB
SO-50 27 Jul 13:01:55 13:05:41 27° 114° (ESE) 13:09:31 436.795 FM
RS-15 27 Jul 13:04:29 13:13:22 29° 104° (ESE) 13:22:05 29.354 - 29.394 USB, Beacon 29.352 USB
Oscar 16 27 Jul 13:20:12 13:24:57 41° 68° (ENE) 13:29:44 437.025 USB, Beacon 2401.1428
AO-Echo 27 Jul 13:24:04 13:28:08 23° 62° (ENE) 13:32:11 ?
ITAMSAT 1 27 Jul 13:37:41 13:42:04 28° 64° (ENE) 13:46:29 435.822 SSB
KITSAT 1 27 Jul 13:47:33 13:53:40 23° 27° (NNE) 13:59:44 435.175 FM
TMSAT-1 27 Jul 13:48:25 13:50:14 12° 55° (NE) 13:52:03 436.925 FM
AO-27 27 Jul 13:55:49 14:00:41 41° 68° (ENE) 14:05:33 436.795 MHz FM
Uribyol 2 27 Jul 13:57:00 14:01:53 43° 69° (ENE) 14:06:47 436.500 FM
Gurwin Techsat 1B 27 Jul 14:08:50 14:12:57 24° 62° (ENE) 14:17:06 435.225 FM
JAS-1B 27 Jul 14:30:03 14:38:44 60° 66° (ENE) 14:48:21 435.800 - 435.900 CW/SSB
Oscar 19 27 Jul 14:31:12 14:36:08 49° 260° (W) 14:41:07 437.125 CW, 437.150 USB
SO-50 27 Jul 14:41:52 14:46:05 39° 313° (NW) 14:50:24 436.795 FM
AO-7 27 Jul 14:59:34 15:06:11 27° 52° (NE) 15:12:49 29.400 - 29.500 MHz
Oscar 16 27 Jul 15:00:10 15:04:26 26° 266° (W) 15:08:44 437.025 USB, Beacon 2401.1428
AO-Echo 27 Jul 15:01:18 15:06:30 55° 260° (W) 15:11:44 ?
UOSAT-12 27 Jul 15:12:15 15:16:33 40° 117° (ESE) 15:20:56 437.025 FM, 437.400 FM
RS-15 27 Jul 15:13:23 15:24:32 81° 306° (NW) 15:35:31 29.354 - 29.394 USB, Beacon 29.352 USB
ITAMSAT 1 27 Jul 15:16:30 15:21:24 41° 262° (W) 15:26:19 435.822 SSB
Uosat F 27 Jul 15:20:17 15:23:40 18° 60° (ENE) 15:27:04 435.120 FM
TMSAT-1 27 Jul 15:23:58 15:29:15 75° 74° (ENE) 15:34:33 436.925 FM
Saudisat 1A 27 Jul 15:30:27 15:32:54 14° 33° (NNE) 15:35:20 436.775 MHz
